EW6167 Weather Reports


Display with metric or nautical units.
time (UTC)temp
F
wind
direction
speed
MPH
gust
MPH
rain 1hr
in
rain 24hr
in
rain mn
in
humidity
%
barometer
mb
20260903125014 51 178 7.0 0.0 0.00 0.00 0.00 45 1003.7
20260903124533 51 176 6.0 0.0 0.00 0.00 0.00 45 1003.7
20260903124051 52 166 7.0 0.0 0.00 0.00 0.00 44 1003.6
20260903123501 52 158 7.0 0.0 0.00 0.00 0.00 43 1003.6
20260903123022 52 159 8.0 0.0 0.00 0.00 0.00 43 1003.7
20260903122537 53 162 8.0 0.0 0.00 0.00 0.00 42 1003.8
20260903122046 54 152 8.0 0.0 0.00 0.00 0.00 42 1003.8
20260903121604 54 129 8.0 0.0 0.00 0.00 0.00 40 1003.8
20260903121025 55 173 9.0 0.0 0.00 0.00 0.00 40 1003.8
20260903120549 55 204 11.0 0.0 0.00 0.00 0.00 39 1003.8
20260903120055 55 192 13.0 0.0 0.00 0.00 0.00 39 1003.9
20260903115511 55 217 11.0 0.0 0.00 0.00 0.00 40 1003.9
20260903115020 54 182 8.0 0.0 0.00 0.00 0.00 41 1003.8
20260903114531 54 180 8.0 0.0 0.00 0.00 0.00 43 1003.9
20260903114040 54 183 8.0 0.0 0.00 0.00 0.00 43 1003.9
20260903113551 54 215 9.0 0.0 0.00 0.00 0.00 43 1003.9
20260903113051 54 194 11.0 0.0 0.00 0.00 0.00 44 1003.9
20260903112514 54 200 14.0 0.0 0.00 0.00 0.00 44 1003.8
20260903112025 54 211 18.0 0.0 0.00 0.00 0.00 43 1004.1
20260903111534 54 157 20.0 0.0 0.00 0.00 0.00 43 1003.8
20260903111049 55 180 22.0 0.0 0.00 0.00 0.00 41 1003.5
20260903110553 55 173 21.0 0.0 0.00 0.00 0.00 40 1003.6
20260903110049 56 167 19.0 0.0 0.00 0.00 0.00 39 1003.4
20260903105507 56 128 16.0 0.0 0.00 0.00 0.00 36 1003.3
20260903105024 57 176 17.0 0.0 0.00 0.00 0.00 36 1003.3
20260903104533 57 134 18.0 0.0 0.00 0.00 0.00 36 1003.1
20260903104040 57 140 18.0 0.0 0.00 0.00 0.00 36 1002.9
20260903103552 57 181 17.0 0.0 0.00 0.00 0.00 35 1002.8
20260903103101 57 173 16.0 0.0 0.00 0.00 0.00 34 1002.7
20260903102509 58 150 16.0 0.0 0.00 0.00 0.00 33 1002.6
20260903102031 58 178 16.0 0.0 0.00 0.00 0.00 32 1002.6
20260903101551 58 161 16.0 0.0 0.00 0.00 0.00 32 1002.5
20260903101102 58 145 17.0 0.0 0.00 0.00 0.00 32 1002.5
20260903100511 58 177 17.0 0.0 0.00 0.00 0.00 32 1002.3
20260903100028 58 171 17.0 0.0 0.00 0.00 0.00 32 1002.1
20260903095539 58 178 17.0 0.0 0.00 0.00 0.00 32 1002.1
20260903095048 58 150 17.0 0.0 0.00 0.00 0.00 31 1002.1
20260903094505 58 135 19.0 0.0 0.00 0.00 0.00 31 1002.1
20260903094027 59 168 18.0 0.0 0.00 0.00 0.00 31 1002.1
20260903093542 58 171 16.0 0.0 0.00 0.00 0.00 31 1002.2
20260903093102 58 173 16.0 0.0 0.00 0.00 0.00 31 1002.2
20260903092517 58 126 17.0 0.0 0.00 0.00 0.00 31 1002.2
20260903092028 58 126 16.0 0.0 0.00 0.00 0.00 30 1002.2
20260903091541 58 149 16.0 0.0 0.00 0.00 0.00 30 1002.0
20260903091054 58 173 17.0 0.0 0.00 0.00 0.00 29 1002.1
20260903090508 58 175 14.0 0.0 0.00 0.00 0.00 30 1002.3
20260903090015 58 146 14.0 0.0 0.00 0.00 0.00 29 1002.5
20260903085528 58 169 15.0 0.0 0.00 0.00 0.00 29 1002.6
20260903085047 58 179 14.0 0.0 0.00 0.00 0.00 29 1002.7
20260903084557 58 148 13.0 0.0 0.00 0.00 0.00 29 1002.7
20260903084006 58 165 14.0 0.0 0.00 0.00 0.00 28 1002.7
20260903083528 58 130 15.0 0.0 0.00 0.00 0.00 28 1002.7
20260903083047 58 167 15.0 0.0 0.00 0.00 0.00 28 1002.7
20260903082558 58 169 15.0 0.0 0.00 0.00 0.00 28 1002.8
20260903082002 58 176 15.0 0.0 0.00 0.00 0.00 28 1002.9
20260903081534 58 163 15.0 0.0 0.00 0.00 0.00 28 1002.8
20260903081040 58 133 15.0 0.0 0.00 0.00 0.00 28 1002.9
20260903080556 58 161 16.0 0.0 0.00 0.00 0.00 27 1002.7
20260903080009 58 152 17.0 0.0 0.00 0.00 0.00 27 1002.9
20260903075535 58 169 17.0 0.0 0.00 0.00 0.00 27 1002.7
20260903075040 58 172 16.0 0.0 0.00 0.00 0.00 28 1002.7
20260903074552 58 148 14.0 0.0 0.00 0.00 0.00 28 1002.7
20260903074008 57 170 14.0 0.0 0.00 0.00 0.00 28 1002.7
20260903073533 57 163 14.0 0.0 0.00 0.00 0.00 28 1002.7
20260903073058 57 188 14.0 0.0 0.00 0.00 0.00 28 1002.7
20260903072557 57 161 13.0 0.0 0.00 0.00 0.00 29 1002.7
20260903072009 56 194 13.0 0.0 0.00 0.00 0.00 29 1002.8
20260903071532 57 190 16.0 0.0 0.00 0.00 0.00 29 1002.8
20260903071052 58 167 17.0 0.0 0.00 0.00 0.00 27 1002.8
20260903070557 58 170 16.0 0.0 0.00 0.00 0.00 27 1002.9
20260903070003 57 166 13.0 0.0 0.00 0.00 0.00 28 1002.7
20260903065517 57 165 12.0 0.0 0.00 0.00 0.00 29 1002.7
20260903065028 57 192 13.0 0.0 0.00 0.00 0.00 28 1002.7
20260903064537 57 165 14.0 0.0 0.00 0.00 0.00 28 1002.7
20260903064046 57 180 14.0 0.0 0.00 0.00 0.00 28 1002.7
20260903063553 57 198 14.0 0.0 0.00 0.00 0.00 29 1002.8
20260903063008 56 165 13.0 0.0 0.00 0.00 0.00 29 1002.8
20260903062516 56 182 14.0 0.0 0.00 0.00 0.00 29 1002.8
20260903062025 56 174 14.0 0.0 0.00 0.00 0.00 30 1002.8
20260903061546 56 169 15.0 0.0 0.00 0.00 0.00 30 1002.8
20260903061057 56 152 15.0 0.0 0.00 0.00 0.00 30 1002.8
20260903060517 57 165 14.0 0.0 0.00 0.00 0.00 29 1002.8
20260903060033 57 175 14.0 0.0 0.00 0.00 0.02 29 1002.6
20260903055548 57 119 15.0 0.0 0.00 0.00 0.02 29 1002.6
20260903055055 58 154 16.0 0.0 0.00 0.00 0.02 28 1002.4
20260903054503 58 148 14.0 0.0 0.00 0.00 0.02 28 1002.4
20260903054031 57 148 12.0 0.0 0.00 0.00 0.02 28 1002.5
20260903053553 58 153 11.0 0.0 0.00 0.00 0.02 28 1002.6
20260903053102 58 167 13.0 0.0 0.00 0.00 0.02 27 1002.6
20260903052521 58 152 12.0 0.0 0.00 0.00 0.02 27 1002.6
20260903052040 58 140 11.0 0.0 0.00 0.00 0.02 27 1002.6
20260903051551 58 169 11.0 0.0 0.00 0.00 0.02 27 1002.8
20260903051007 58 176 11.0 0.0 0.00 0.00 0.02 26 1002.8
20260903050529 58 119 10.0 0.0 0.00 0.00 0.02 26 1002.7
20260903050036 58 184 10.0 0.0 0.00 0.00 0.02 26 1002.8
20260903045556 59 180 10.0 0.0 0.00 0.00 0.02 26 1002.8
20260903045014 58 159 9.0 0.0 0.00 0.00 0.02 26 1003.0
20260903044530 58 180 9.0 0.0 0.00 0.00 0.02 26 1003.2
20260903044043 59 145 9.0 0.0 0.00 0.00 0.02 26 1003.2
20260903043558 59 138 10.0 0.0 0.00 0.00 0.02 25 1003.3
20260903043020 59 170 11.0 0.0 0.00 0.00 0.02 25 1003.3
20260903042531 60 149 12.0 0.0 0.00 0.00 0.02 25 1003.4
20260903042054 60 157 13.0 0.0 0.00 0.00 0.02 25 1003.5
20260903041509 59 168 11.0 0.0 0.00 0.00 0.02 25 1003.4
20260903041031 59 172 10.0 0.0 0.00 0.00 0.02 25 1003.4
20260903040548 59 132 11.0 0.0 0.00 0.00 0.02 25 1003.5
20260903040104 60 167 12.0 0.0 0.00 0.00 0.02 25 1003.4
20260903035505 59 141 12.0 0.0 0.00 0.00 0.02 25 1003.2
20260903035024 59 192 12.0 0.0 0.00 0.00 0.02 26 1003.2
20260903034543 60 140 12.0 0.0 0.00 0.00 0.02 25 1003.2
20260903034103 60 178 12.0 0.0 0.00 0.00 0.02 25 1003.0
20260903033506 60 156 12.0 0.0 0.00 0.00 0.02 25 1003.0
20260903033025 60 167 14.0 0.0 0.00 0.00 0.02 24 1003.0
20260903032539 60 162 13.0 0.0 0.00 0.00 0.02 24 1003.1
20260903032057 60 144 12.0 0.0 0.00 0.00 0.02 24 1003.1
20260903031521 61 168 11.0 0.0 0.00 0.00 0.02 24 1003.1
20260903031023 61 175 11.0 0.0 0.00 0.00 0.02 24 1003.2
20260903030535 61 138 12.0 0.0 0.00 0.00 0.02 24 1003.2
20260903030045 61 146 13.0 0.0 0.00 0.00 0.02 23 1003.2
20260903025547 61 164 14.0 0.0 0.00 0.00 0.02 23 1003.2
20260903025053 62 136 15.0 0.0 0.00 0.00 0.02 23 1002.9
20260903024504 62 131 16.0 0.0 0.00 0.00 0.02 23 1002.9
20260903024012 62 160 16.0 0.0 0.00 0.00 0.02 23 1002.8
20260903023537 62 153 16.0 0.0 0.00 0.00 0.02 23 1002.5
20260903023058 62 139 16.0 0.0 0.00 0.00 0.02 23 1002.5
20260903022554 62 178 16.0 0.0 0.00 0.00 0.02 23 1002.6
20260903022005 62 197 17.0 0.0 0.00 0.00 0.02 23 1002.7
20260903021543 63 198 18.0 0.0 0.00 0.00 0.02 23 1002.7
20260903021044 63 178 19.0 0.0 0.00 0.00 0.02 22 1002.5
20260903020556 63 132 18.0 0.0 0.00 0.00 0.02 22 1002.4
20260903020007 63 146 19.0 0.0 0.00 0.00 0.02 22 1002.3
20260903015528 64 180 20.0 0.0 0.00 0.00 0.02 22 1002.5
20260903015046 64 168 20.0 0.0 0.00 0.00 0.02 21 1002.6
20260903014555 64 152 20.0 0.0 0.00 0.00 0.02 21 1002.6
20260903014004 64 186 20.0 0.0 0.00 0.00 0.02 21 1002.6
20260903013515 65 171 20.0 0.0 0.00 0.00 0.02 20 1002.6
20260903013034 65 188 21.0 0.0 0.00 0.00 0.02 20 1002.6
20260903012546 65 170 21.0 0.0 0.00 0.00 0.02 19 1002.3
20260903012055 65 159 20.0 0.0 0.00 0.00 0.02 19 1002.4
20260903011605 66 137 20.0 0.0 0.00 0.00 0.02 20 1002.4
20260903011009 66 190 19.0 0.0 0.00 0.00 0.02 19 1002.4
20260903010536 66 132 18.0 0.0 0.00 0.00 0.02 19 1002.2
20260903010052 67 168 17.0 0.0 0.00 0.00 0.02 19 1002.1
20260903005503 67 166 17.0 0.0 0.00 0.00 0.02 18 1002.1
20260903005021 67 133 18.0 0.0 0.00 0.00 0.02 18 1002.0
20260903004541 67 172 19.0 0.0 0.00 0.00 0.02 18 1002.0
20260903004048 67 178 20.0 0.0 0.00 0.00 0.02 18 1002.1
20260903003557 67 171 19.0 0.0 0.00 0.00 0.02 18 1001.9
20260903003014 67 130 20.0 0.0 0.00 0.00 0.02 18 1002.0
20260903002525 68 196 21.0 0.0 0.00 0.00 0.02 18 1002.1
20260903002029 68 162 20.0 0.0 0.00 0.00 0.02 18 1002.1
20260903001547 69 182 19.0 0.0 0.00 0.00 0.02 18 1001.9
20260903001008 69 167 18.0 0.0 0.00 0.00 0.02 18 1001.7
20260903000531 70 184 18.0 0.0 0.00 0.00 0.02 17 1001.8
20260903000036 69 171 19.0 0.0 0.00 0.00 0.02 18 1001.8
20260902235542 69 163 19.0 0.0 0.00 0.00 0.02 17 1001.8
20260902235056 70 182 20.0 0.0 0.00 0.00 0.02 17 1001.9
20260902234504 70 178 21.0 0.0 0.00 0.00 0.02 16 1001.8
20260902234023 69 201 21.0 0.0 0.00 0.00 0.02 17 1001.8
20260902233543 69 159 21.0 0.0 0.00 0.00 0.02 16 1001.8
20260902233052 70 174 19.0 0.0 0.00 0.00 0.02 16 1001.9
20260902232512 69 182 18.0 0.0 0.00 0.00 0.02 16 1001.8
20260902232038 69 204 19.0 0.0 0.00 0.00 0.02 16 1001.9
20260902231558 69 144 20.0 0.0 0.00 0.00 0.02 16 1001.9
20260902231105 69 188 22.0 0.0 0.00 0.00 0.02 16 1001.8
20260902230504 69 206 23.0 0.0 0.00 0.00 0.02 16 1002.0
20260902230027 69 185 22.0 0.0 0.00 0.00 0.02 15 1001.9
20260902225542 70 186 22.0 0.0 0.00 0.00 0.02 16 1002.1
20260902225053 70 180 22.0 0.0 0.00 0.00 0.02 16 1002.1
20260902224509 72 198 21.0 0.0 0.00 0.00 0.02 15 1002.0
20260902224031 72 193 20.0 0.0 0.00 0.00 0.02 16 1001.9
20260902223553 72 182 18.0 0.0 0.00 0.00 0.02 17 1002.0
20260902223004 72 219 19.0 0.0 0.00 0.00 0.02 18 1001.6
20260902222515 71 202 21.0 0.0 0.00 0.00 0.02 19 1001.7
20260902222033 71 196 21.0 0.0 0.00 0.00 0.02 19 1001.9
20260902221552 71 148 21.0 0.0 0.00 0.00 0.02 19 1001.6
20260902221100 71 116 20.0 0.0 0.00 0.00 0.02 19 1001.8
20260902220515 72 181 21.0 0.0 0.00 0.00 0.02 21 1001.9
20260902220035 72 219 21.0 0.0 0.00 0.00 0.02 20 1001.6
20260902215546 72 203 22.0 0.0 0.00 0.00 0.02 20 1001.6
20260902215056 73 159 24.0 0.0 0.00 0.00 0.02 19 1001.6
20260902214501 73 177 23.0 0.0 0.00 0.00 0.02 20 1001.5
20260902214013 73 215 20.0 0.0 0.00 0.00 0.02 20 1001.4
20260902213530 73 203 21.0 0.0 0.00 0.00 0.02 22 1001.3
20260902213050 73 186 22.0 0.0 0.00 0.00 0.02 22 1001.2
20260902212552 72 135 22.0 0.0 0.00 0.00 0.02 23 1001.3
20260902212016 71 155 23.0 0.0 0.00 0.00 0.02 24 1001.3
20260902211535 72 168 23.0 0.0 0.00 0.00 0.02 23 1001.4
20260902211052 73 195 24.0 0.0 0.00 0.00 0.02 21 1001.3
20260902210511 73 186 24.0 0.0 0.00 0.00 0.02 21 1001.1
20260902210036 73 194 23.0 0.0 0.00 0.00 0.02 22 1001.2
20260902205543 73 175 21.0 0.0 0.00 0.00 0.02 21 1001.2
20260902205001 73 171 23.0 0.0 0.00 0.00 0.02 21 1001.2
20260902204517 73 222 22.0 0.0 0.00 0.00 0.02 21 1001.2
20260902204033 73 208 21.0 0.0 0.00 0.00 0.02 19 1001.2
20260902203559 72 179 22.0 0.0 0.00 0.00 0.02 20 1001.3
20260902203001 73 187 22.0 0.0 0.00 0.00 0.02 20 1000.9
20260902202522 72 198 24.0 0.0 0.00 0.00 0.02 20 1001.1
20260902202031 73 180 26.0 0.0 0.00 0.00 0.02 19 1000.9
20260902201546 73 205 27.0 0.0 0.00 0.00 0.02 19 1000.8
20260902201006 73 208 26.0 0.0 0.00 0.00 0.02 19 1000.6
20260902200527 73 176 25.0 0.0 0.00 0.00 0.02 19 1000.6
20260902200040 73 150 25.0 0.0 0.00 0.00 0.02 18 1000.8
20260902195555 73 167 25.0 0.0 0.00 0.00 0.02 19 1000.8
20260902195003 73 190 25.0 0.0 0.00 0.00 0.02 19 1000.6
20260902194524 73 188 26.0 0.0 0.00 0.00 0.02 19 1000.8
20260902194035 73 208 27.0 0.0 0.00 0.00 0.02 19 1000.7
20260902193552 73 134 27.0 0.0 0.00 0.00 0.02 19 1000.6
20260902193102 73 173 25.0 0.0 0.00 0.00 0.02 19 1000.9
20260902192513 73 180 25.0 0.0 0.00 0.00 0.02 18 1000.8
20260902192026 73 186 26.0 0.0 0.00 0.00 0.02 19 1000.9
20260902191533 73 204 24.0 0.0 0.00 0.00 0.02 19 1001.0
20260902191044 73 171 24.0 0.0 0.00 0.00 0.02 19 1000.9
20260902190555 73 184 25.0 0.0 0.00 0.00 0.02 19 1000.7
20260902190010 73 167 24.0 0.0 0.00 0.00 0.02 23 1000.8
20260902185527 73 178 23.0 0.0 0.00 0.00 0.02 23 1000.7
20260902185042 73 225 23.0 0.0 0.00 0.00 0.02 26 1000.9
20260902184547 73 150 25.0 0.0 0.00 0.00 0.02 25 1000.8
20260902184100 72 180 26.0 0.0 0.00 0.00 0.02 26 1000.9
20260902183513 72 159 25.0 0.0 0.00 0.00 0.02 27 1000.9
20260902183028 72 168 24.0 0.0 0.00 0.00 0.02 23 1000.9
20260902182543 72 181 25.0 0.0 0.00 0.00 0.02 26 1001.1
20260902182056 72 186 23.0 0.0 0.00 0.00 0.02 27 1001.3
20260902181504 72 182 21.0 0.0 0.00 0.00 0.02 29 1001.4
20260902181020 73 178 21.0 0.0 0.00 0.00 0.02 30 1001.5
20260902180542 72 175 22.0 0.0 0.00 0.00 0.02 29 1001.2
20260902180054 72 175 21.0 0.0 0.00 0.00 0.02 30 1001.3
20260902175509 72 163 19.0 0.0 0.00 0.00 0.02 31 1001.3
20260902175029 72 198 18.0 0.0 0.00 0.00 0.02 32 1001.5
20260902174537 71 123 18.0 0.0 0.00 0.00 0.02 35 1001.4
20260902174052 71 163 18.0 0.0 0.00 0.00 0.02 37 1001.5
20260902173557 71 170 20.0 0.0 0.00 0.00 0.02 35 1001.7
20260902173015 70 195 23.0 0.0 0.00 0.00 0.02 36 1001.7
20260902172531 71 165 22.0 0.0 0.00 0.00 0.02 35 1001.7
20260902172037 71 183 21.0 0.0 0.00 0.00 0.02 35 1001.5
20260902171555 70 174 20.0 0.0 0.00 0.00 0.02 37 1001.7
20260902171012 70 144 20.0 0.0 0.00 0.00 0.02 36 1001.6
20260902170529 70 205 20.0 0.0 0.00 0.00 0.02 38 1001.8
20260902170042 70 159 18.0 0.0 0.00 0.00 0.02 37 1001.9
20260902165554 69 200 16.0 0.0 0.00 0.00 0.02 42 1001.8
20260902165103 69 171 15.0 0.0 0.00 0.00 0.02 42 1001.7
20260902164515 70 173 16.0 0.0 0.00 0.00 0.02 43 1001.7
20260902164026 69 141 16.0 0.0 0.00 0.00 0.02 43 1001.5
20260902163532 69 157 16.0 0.0 0.00 0.00 0.02 45 1001.6
20260902163039 69 169 16.0 0.0 0.00 0.00 0.02 44 1001.7
20260902162550 68 121 15.0 0.0 0.00 0.00 0.02 45 1001.5
20260902162057 67 169 14.0 0.0 0.00 0.00 0.02 48 1001.8
20260902161505 66 198 15.0 0.0 0.00 0.00 0.02 52 1001.9
20260902161024 66 164 16.0 0.0 0.00 0.00 0.02 52 1002.1
20260902160547 66 178 16.0 0.0 0.00 0.00 0.02 53 1002.1
20260902160055 66 175 16.0 0.0 0.00 0.00 0.02 53 1002.1
20260902155512 66 186 16.0 0.0 0.00 0.00 0.02 54 1001.9
20260902155022 65 180 15.0 0.0 0.00 0.00 0.02 53 1001.9
20260902154536 65 198 15.0 0.0 0.00 0.00 0.02 54 1002.0
20260902154041 64 193 16.0 0.0 0.00 0.00 0.02 55 1001.9
20260902153552 64 165 15.0 0.0 0.00 0.00 0.02 58 1002.0
20260902153007 63 173 14.0 0.0 0.00 0.00 0.02 60 1002.0
20260902152521 62 182 15.0 0.0 0.00 0.00 0.02 61 1002.1
20260902152036 62 174 15.0 0.0 0.00 0.00 0.02 63 1002.1
20260902151547 61 191 14.0 0.0 0.00 0.00 0.02 64 1002.2
20260902151101 61 175 13.0 0.0 0.00 0.00 0.02 65 1002.2
20260902150512 61 196 14.0 0.0 0.00 0.00 0.02 65 1002.3
20260902150022 61 163 14.0 0.0 0.00 0.00 0.02 63 1002.3
20260902145529 61 167 14.0 0.0 0.00 0.00 0.02 63 1002.6
20260902145034 60 178 15.0 0.0 0.00 0.00 0.02 66 1002.7
20260902144545 60 163 16.0 0.0 0.00 0.00 0.02 66 1002.7
20260902144059 59 158 15.0 0.0 0.00 0.00 0.02 68 1002.7
20260902143521 58 149 14.0 0.0 0.00 0.00 0.02 71 1002.7
20260902143037 57 140 14.0 0.0 0.00 0.00 0.02 71 1002.8
20260902142554 56 171 14.0 0.0 0.00 0.00 0.02 72 1002.8
20260902142103 56 153 14.0 0.0 0.00 0.00 0.02 73 1002.7
20260902141514 55 173 12.0 0.0 0.00 0.00 0.02 74 1002.7
20260902141046 55 159 11.0 0.0 0.00 0.00 0.02 74 1002.7
20260902140605 55 161 11.0 0.0 0.00 0.00 0.02 73 1002.7
20260902140021 55 144 13.0 0.0 0.00 0.00 0.02 73 1002.6
20260902135541 55 188 14.0 0.0 0.00 0.00 0.02 73 1002.6
20260902135055 55 157 15.0 0.0 0.00 0.00 0.02 73 1002.7
20260902134513 55 169 14.0 0.0 0.00 0.00 0.02 74 1002.7
20260902134035 55 179 12.0 0.0 0.00 0.00 0.02 75 1002.7
20260902133547 54 137 11.0 0.0 0.00 0.00 0.01 77 1002.7
20260902133058 53 137 11.0 0.0 0.00 0.00 0.01 78 1002.8
20260902132504 53 138 11.0 0.0 0.00 0.00 0.01 78 1002.7
20260902132012 53 146 12.0 0.0 0.00 0.00 0.01 78 1002.7
20260902131535 53 125 11.0 0.0 0.00 0.00 0.01 78 1002.7
20260902131056 53 160 10.0 0.0 0.00 0.00 0.01 79 1002.7
20260902130512 53 189 11.0 0.0 0.00 0.00 0.01 78 1002.8
20260902130032 53 152 9.0 0.0 0.00 0.00 0.01 78 1002.7
20260902125542 53 144 8.0 0.0 0.00 0.00 0.01 79 1002.8